User: anonymous   Login
Location: Natural Bridges National Monument
(37.6093°N, 109.9767°W)
Time: 21:33:25
(UTC-06:00)
Language:

USA 32 - Orbit

View from above orbital plane
View from above orbital plane
View from above satellite
View from above satellite

Ground track
Ground track

The orbit data is extracted from the following two-line orbital elements,

1 19460U 88078A   16263.02947050 0.00000070  00000-0  25418-4 0    00
2 19460  84.9843  19.3950 0005000 342.9821  17.0177 14.33388501    08
Epoch (UTC): 19 September 2016 00:42:26
Eccentricity: 0.0005000
inclination: 84.9843°
perigee height: 777 km
apogee height: 784 km
right ascension of ascending node: 19.3950°
argument of perigee: 342.9821°
revolutions per day: 14.33388501
mean anomaly at epoch: 17.0177°
orbit number at epoch: 0

The dashed part of the orbit path shows where the satellite is in the earth's shadow,  

DLR